Weather History for Rochester, NH

Change the Weather History Date:

Tuesday, February 11, 2014

  Actual Average (KSFM) Record (KSFM)
Temperature  
Mean Temperature 12 °F -  
Max Temperature 21 °F 31 °F 55 °F (2009)
Min Temperature 3 °F 11 °F -14 °F (2014)
Degree Days  
Heating Degree Days 53    
Moisture  
Dew Point 0 °F    
Average Humidity 56    
Maximum Humidity 80    
Minimum Humidity 38    
Precipitation  
Precipitation 0.00 in - - ()
Sea Level Pressure  
Sea Level Pressure 30.26 in    
Wind  
Wind Speed 6 mph (WNW)    
Max Wind Speed 18 mph    
Max Gust Speed 24 mph    
Visibility 10 miles    
Events      
Averages and records for this station are not official NWS values.
T = Trace of Precipitation, MM = Missing Value Source: NWS Daily Summary

Daily Weather History Graph

Daily Weather History Graph

Search for Another Location

Airport:

Trip Planner

Search our weather history database for the weather conditions in past years. The results will help you decide how hot, cold, wet, or windy it might be!

Date:

Astronomy

Feb. 11, 2014 Rise Set
Actual Time 6:47 AM EST 5:09 PM EST
Civil Twilight 6:17 AM EST 5:38 PM EST
Nautical Twilight 5:44 AM EST 6:12 PM EST
Astronomical Twilight 5:11 AM EST 6:45 PM EST
Moon 2:24 PM EST (2/11) 4:24 AM EST (2/11)
Length of Visible Light 11h 21m
Length of Day
10h 22m
Waxing Gibbous, 90% of the Moon is Illuminated
Feb 11
Waxing Gibbous
Feb 14
Full
Feb 22
Last Quarter
Mar 1
New
Mar 8
First Quarter

Hourly Weather History & Observations

Time (EST) Temp. Windchill Dew Point Humidity Pressure Visibility Wind Dir Wind Speed Gust Speed Precip Events Conditions
12:51 AM 10.9 °F 2.9 °F 1.9 °F 67% 30.18 in 10.0 mi WSW 4.6 mph - N/A   Clear
1:51 AM 12.0 °F 5.9 °F 3.0 °F 67% 30.18 in 10.0 mi WSW 3.5 mph - N/A   Clear
2:51 AM 6.1 °F -2.8 °F -0.9 °F 73% 30.19 in 10.0 mi NW 4.6 mph - N/A   Clear
3:51 AM 7.0 °F 0.1 °F 1.0 °F 77% 30.20 in 10.0 mi West 3.5 mph - N/A   Clear
4:51 AM 3.0 °F -8.0 °F -2.0 °F 80% 30.21 in 10.0 mi NNW 5.8 mph - N/A   Clear
5:51 AM 6.1 °F -0.9 °F -0.9 °F 73% 30.22 in 10.0 mi Variable 3.5 mph - N/A   Clear
6:51 AM 8.1 °F - 1.0 °F 73% 30.23 in 10.0 mi Calm Calm - N/A   Clear
7:51 AM 8.1 °F - 1.9 °F 76% 30.25 in 10.0 mi Calm Calm - N/A   Clear
8:51 AM 12.9 °F - 3.0 °F 65% 30.25 in 10.0 mi Calm Calm - N/A   Clear
9:51 AM 17.1 °F 7.6 °F 3.9 °F 56% 30.25 in 10.0 mi NW 6.9 mph - N/A   Clear
10:51 AM 19.0 °F 10.0 °F 1.0 °F 46% 30.26 in 10.0 mi WNW 6.9 mph 19.6 mph N/A   Clear
11:51 AM 19.9 °F 8.6 °F 1.0 °F 44% 30.24 in 10.0 mi WNW 10.4 mph 18.4 mph N/A   Clear
12:51 PM 21.0 °F 9.3 °F -0.0 °F 40% 30.22 in 10.0 mi WNW 11.5 mph 24.2 mph N/A   Clear
1:51 PM 21.0 °F 9.9 °F -0.9 °F 38% 30.22 in 10.0 mi WNW 10.4 mph 19.6 mph N/A   Clear
2:51 PM 19.9 °F 4.8 °F -0.0 °F 42% 30.22 in 10.0 mi NW 18.4 mph 24.2 mph N/A   Clear
3:51 PM 19.9 °F 7.3 °F -0.9 °F 40% 30.24 in 10.0 mi WNW 12.7 mph 20.7 mph N/A   Clear
4:51 PM 19.0 °F 5.0 °F -2.0 °F 40% 30.27 in 10.0 mi NW 15.0 mph - N/A   Clear
5:51 PM 16.0 °F 2.3 °F -0.9 °F 47% 30.30 in 10.0 mi NW 12.7 mph - N/A   Clear
6:51 PM 14.0 °F 0.5 °F -0.9 °F 52% 30.32 in 10.0 mi NW 11.5 mph - N/A   Clear
7:51 PM 14.0 °F 2.0 °F -2.0 °F 49% 30.34 in 10.0 mi NW 9.2 mph - N/A   Clear
8:51 PM 12.9 °F -0.2 °F -2.9 °F 49% 30.36 in 10.0 mi NW 10.4 mph - N/A   Clear
9:51 PM 10.9 °F -1.8 °F -2.9 °F 54% 30.38 in 10.0 mi NW 9.2 mph - N/A   Clear
10:51 PM 10.0 °F -5.2 °F -5.1 °F 51% 30.38 in 10.0 mi NW 12.7 mph - N/A   Clear
11:51 PM 8.1 °F -5.3 °F -7.1 °F 50% 30.40 in 10.0 mi NW 9.2 mph - N/A   Clear